| time (UTC) | temp F | wind direction | speed MPH | gust MPH | rain 1hr in | rain 24hr in | rain mn in | humidity % | barometer mb |
| 20260904213554 | 60 | 25 | 2.0 | 3.0 | 0.09 | 0.18 | 0.17 | 80 | 1013.4 |
| 20260904213108 | 61 | 0 | 0.0 | 2.0 | 0.08 | 0.17 | 0.16 | 78 | 1013.2 |
| 20260904212555 | 61 | 0 | 0.0 | 10.0 | 0.06 | 0.15 | 0.14 | 77 | 1013.2 |
| 20260904212058 | 62 | 0 | 3.0 | 10.0 | 0.04 | 0.13 | 0.12 | 75 | 1013.2 |
| 20260904211606 | 63 | 227 | 2.0 | 7.0 | 0.02 | 0.11 | 0.10 | 73 | 1013.2 |
| 20260904211054 | 64 | 141 | 2.0 | 7.0 | 0.01 | 0.10 | 0.09 | 72 | 1013.2 |
| 20260904210556 | 64 | 286 | 1.0 | 8.0 | 0.00 | 0.09 | 0.08 | 70 | 1013.0 |
| 20260904210120 | 65 | 286 | 2.0 | 8.0 | 0.00 | 0.09 | 0.08 | 67 | 1012.8 |
| 20260904205555 | 66 | 281 | 2.0 | 8.0 | 0.00 | 0.10 | 0.08 | 66 | 1012.9 |
| 20260904205054 | 67 | 277 | 2.0 | 6.0 | 0.00 | 0.10 | 0.08 | 63 | 1012.7 |
| 20260904204602 | 67 | 300 | 0.0 | 4.0 | 0.00 | 0.10 | 0.08 | 63 | 1012.6 |
| 20260904204058 | 67 | 11 | 1.0 | 5.0 | 0.00 | 0.10 | 0.08 | 63 | 1012.5 |
| 20260904203558 | 68 | 0 | 0.0 | 5.0 | 0.00 | 0.10 | 0.08 | 64 | 1012.5 |
| 20260904203104 | 68 | 257 | 1.0 | 8.0 | 0.00 | 0.10 | 0.08 | 62 | 1012.5 |
| 20260904202554 | 68 | 0 | 2.0 | 8.0 | 0.00 | 0.10 | 0.08 | 61 | 1012.3 |
| 20260904202054 | 69 | 264 | 1.0 | 7.0 | 0.00 | 0.10 | 0.08 | 59 | 1012.5 |
| 20260904201636 | 70 | 248 | 1.0 | 5.0 | 0.00 | 0.10 | 0.08 | 60 | 1012.4 |
| 20260904201054 | 70 | 277 | 0.0 | 5.0 | 0.00 | 0.10 | 0.08 | 58 | 1012.3 |
| 20260904200554 | 69 | 318 | 2.0 | 7.0 | 0.00 | 0.10 | 0.08 | 59 | 1012.4 |
| 20260904200121 | 69 | 313 | 2.0 | 8.0 | 0.00 | 0.10 | 0.08 | 61 | 1012.4 |
| 20260904195555 | 68 | 32 | 1.0 | 8.0 | 0.00 | 0.10 | 0.08 | 61 | 1012.5 |
| 20260904195055 | 68 | 273 | 1.0 | 5.0 | 0.00 | 0.10 | 0.08 | 62 | 1012.4 |
| 20260904194605 | 67 | 249 | 0.0 | 5.0 | 0.00 | 0.10 | 0.08 | 62 | 1012.6 |
| 20260904194055 | 67 | 282 | 2.0 | 5.0 | 0.00 | 0.10 | 0.08 | 61 | 1012.7 |
| 20260904193558 | 67 | 0 | 0.0 | 2.0 | 0.00 | 0.10 | 0.08 | 63 | 1012.7 |
| 20260904193103 | 67 | 213 | 0.0 | 2.0 | 0.00 | 0.10 | 0.08 | 63 | 1012.7 |
| 20260904192555 | 67 | 0 | 0.0 | 3.0 | 0.00 | 0.10 | 0.08 | 62 | 1012.7 |
| 20260904192055 | 67 | 0 | 0.0 | 4.0 | 0.00 | 0.10 | 0.08 | 62 | 1012.7 |
| 20260904191601 | 67 | 77 | 2.0 | 4.0 | 0.00 | 0.10 | 0.08 | 61 | 1012.8 |
| 20260904191054 | 68 | 0 | 0.0 | 4.0 | 0.00 | 0.10 | 0.08 | 60 | 1012.8 |
| 20260904190553 | 68 | 0 | 0.0 | 4.0 | 0.00 | 0.10 | 0.08 | 61 | 1012.8 |
| 20260904190105 | 68 | 5 | 1.0 | 4.0 | 0.00 | 0.10 | 0.08 | 59 | 1012.7 |
| 20260904185555 | 68 | 0 | 1.0 | 4.0 | 0.00 | 0.12 | 0.08 | 61 | 1012.8 |
| 20260904185057 | 68 | 5 | 0.0 | 4.0 | 0.00 | 0.12 | 0.08 | 65 | 1012.7 |
| 20260904184606 | 66 | 65 | 1.0 | 4.0 | 0.00 | 0.12 | 0.08 | 65 | 1012.8 |
| 20260904184055 | 65 | 0 | 1.0 | 5.0 | 0.00 | 0.12 | 0.08 | 68 | 1012.8 |
| 20260904183555 | 65 | 63 | 2.0 | 6.0 | 0.00 | 0.12 | 0.08 | 69 | 1012.7 |
| 20260904183102 | 64 | 0 | 1.0 | 6.0 | 0.00 | 0.12 | 0.08 | 69 | 1012.6 |
| 20260904182554 | 64 | 51 | 2.0 | 6.0 | 0.00 | 0.12 | 0.08 | 71 | 1012.6 |
| 20260904182054 | 64 | 0 | 2.0 | 4.0 | 0.00 | 0.12 | 0.08 | 72 | 1012.5 |
| 20260904181559 | 64 | 79 | 0.0 | 2.0 | 0.00 | 0.12 | 0.08 | 73 | 1012.5 |
| 20260904181054 | 63 | 79 | 1.0 | 4.0 | 0.00 | 0.12 | 0.08 | 72 | 1012.5 |
| 20260904180554 | 63 | 0 | 0.0 | 4.0 | 0.00 | 0.12 | 0.08 | 72 | 1012.5 |
| 20260904180105 | 63 | 39 | 2.0 | 4.0 | 0.00 | 0.12 | 0.08 | 73 | 1012.5 |
| 20260904175555 | 63 | 0 | 0.0 | 4.0 | 0.00 | 0.12 | 0.08 | 76 | 1012.5 |
| 20260904175054 | 62 | 0 | 1.0 | 6.0 | 0.00 | 0.12 | 0.08 | 77 | 1012.5 |
| 20260904174603 | 62 | 0 | 1.0 | 6.0 | 0.00 | 0.12 | 0.08 | 79 | 1012.4 |
| 20260904174055 | 62 | 0 | 0.0 | 4.0 | 0.00 | 0.12 | 0.08 | 80 | 1012.4 |
| 20260904173555 | 61 | 0 | 0.0 | 5.0 | 0.00 | 0.12 | 0.08 | 81 | 1012.5 |
| 20260904173058 | 61 | 44 | 2.0 | 5.0 | 0.00 | 0.12 | 0.08 | 81 | 1012.4 |
| 20260904172555 | 61 | 43 | 1.0 | 4.0 | 0.00 | 0.12 | 0.08 | 82 | 1012.4 |
| 20260904172055 | 61 | 111 | 0.0 | 4.0 | 0.00 | 0.12 | 0.08 | 84 | 1012.4 |
| 20260904171621 | 60 | 44 | 2.0 | 4.0 | 0.00 | 0.12 | 0.08 | 85 | 1012.3 |
| 20260904171055 | 60 | 73 | 0.0 | 3.0 | 0.00 | 0.12 | 0.08 | 88 | 1012.3 |
| 20260904170554 | 59 | 0 | 0.0 | 3.0 | 0.00 | 0.12 | 0.08 | 89 | 1012.3 |
| 20260904170104 | 58 | 81 | 0.0 | 3.0 | 0.00 | 0.12 | 0.08 | 90 | 1012.3 |
| 20260904165554 | 58 | 0 | 0.0 | 3.0 | 0.00 | 0.12 | 0.08 | 92 | 1012.3 |
| 20260904165055 | 57 | 0 | 1.0 | 3.0 | 0.00 | 0.12 | 0.08 | 91 | 1012.3 |
| 20260904164602 | 57 | 54 | 0.0 | 0.0 | 0.00 | 0.12 | 0.08 | 93 | 1012.3 |
| 20260904164056 | 56 | 0 | 0.0 | 0.0 | 0.00 | 0.12 | 0.08 | 93 | 1012.2 |
| 20260904163554 | 56 | 0 | 0.0 | 0.0 | 0.01 | 0.12 | 0.08 | 93 | 1012.2 |
| 20260904163108 | 56 | 0 | 0.0 | 0.0 | 0.01 | 0.12 | 0.08 | 94 | 1012.2 |
| 20260904162555 | 56 | 0 | 0.0 | 3.0 | 0.02 | 0.12 | 0.08 | 94 | 1012.2 |
| 20260904162054 | 55 | 0 | 0.0 | 3.0 | 0.02 | 0.12 | 0.08 | 94 | 1012.1 |
| 20260904161612 | 55 | 0 | 0.0 | 3.0 | 0.02 | 0.12 | 0.08 | 94 | 1012.0 |
| 20260904161054 | 55 | 0 | 0.0 | 2.0 | 0.02 | 0.12 | 0.08 | 94 | 1012.0 |
| 20260904160556 | 55 | 0 | 0.0 | 2.0 | 0.02 | 0.12 | 0.08 | 94 | 1012.0 |
| 20260904160103 | 55 | 0 | 0.0 | 2.0 | 0.02 | 0.12 | 0.08 | 93 | 1012.2 |
| 20260904155558 | 55 | 90 | 0.0 | 2.0 | 0.02 | 0.15 | 0.08 | 94 | 1012.2 |
| 20260904155055 | 54 | 0 | 0.0 | 2.0 | 0.02 | 0.15 | 0.08 | 93 | 1012.1 |
| 20260904154602 | 54 | 0 | 0.0 | 2.0 | 0.02 | 0.15 | 0.08 | 93 | 1012.1 |
| 20260904154056 | 54 | 69 | 0.0 | 1.0 | 0.02 | 0.15 | 0.08 | 93 | 1012.1 |
| 20260904153555 | 54 | 0 | 0.0 | 2.0 | 0.01 | 0.14 | 0.07 | 93 | 1012.1 |
| 20260904153117 | 54 | 0 | 0.0 | 2.0 | 0.01 | 0.14 | 0.07 | 93 | 1012.2 |
| 20260904152555 | 54 | 0 | 0.0 | 0.0 | 0.00 | 0.13 | 0.06 | 93 | 1012.0 |
| 20260904152055 | 54 | 0 | 0.0 | 1.0 | 0.00 | 0.13 | 0.06 | 93 | 1012.1 |
| 20260904151605 | 53 | 0 | 0.0 | 3.0 | 0.00 | 0.13 | 0.06 | 93 | 1012.0 |
| 20260904151055 | 53 | 0 | 0.0 | 3.0 | 0.00 | 0.13 | 0.06 | 93 | 1012.0 |
| 20260904150555 | 53 | 0 | 0.0 | 3.0 | 0.00 | 0.13 | 0.06 | 93 | 1011.9 |
| 20260904150103 | 53 | 0 | 0.0 | 2.0 | 0.00 | 0.13 | 0.06 | 93 | 1011.9 |
| 20260904145556 | 53 | 0 | 0.0 | 2.0 | 0.00 | 0.18 | 0.06 | 93 | 1011.8 |
| 20260904145056 | 53 | 108 | 0.0 | 2.0 | 0.00 | 0.18 | 0.06 | 93 | 1011.8 |
| 20260904144615 | 53 | 0 | 0.0 | 2.0 | 0.00 | 0.18 | 0.06 | 94 | 1011.5 |
| 20260904144057 | 53 | 0 | 0.0 | 2.0 | 0.00 | 0.18 | 0.06 | 93 | 1011.6 |
| 20260904143555 | 53 | 0 | 0.0 | 0.0 | 0.00 | 0.18 | 0.06 | 94 | 1011.5 |
| 20260904143117 | 53 | 0 | 0.0 | 0.0 | 0.00 | 0.18 | 0.06 | 94 | 1011.5 |
| 20260904142556 | 53 | 0 | 0.0 | 2.0 | 0.00 | 0.18 | 0.06 | 93 | 1011.4 |
| 20260904142055 | 53 | 0 | 0.0 | 2.0 | 0.00 | 0.18 | 0.06 | 93 | 1011.3 |
| 20260904141604 | 53 | 0 | 0.0 | 2.0 | 0.00 | 0.18 | 0.06 | 93 | 1011.2 |
| 20260904141054 | 53 | 0 | 0.0 | 2.0 | 0.00 | 0.18 | 0.06 | 93 | 1011.2 |
| 20260904140557 | 53 | 0 | 0.0 | 3.0 | 0.00 | 0.18 | 0.06 | 93 | 1011.2 |
| 20260904135555 | 53 | 0 | 0.0 | 3.0 | 0.00 | 0.22 | 0.06 | 93 | 1011.2 |
| 20260904135055 | 53 | 49 | 0.0 | 3.0 | 0.00 | 0.22 | 0.06 | 94 | 1011.2 |
| 20260904134601 | 53 | 0 | 0.0 | 2.0 | 0.00 | 0.22 | 0.06 | 93 | 1011.1 |
| 20260904134055 | 53 | 0 | 0.0 | 2.0 | 0.00 | 0.22 | 0.06 | 93 | 1011.1 |
| 20260904133555 | 53 | 0 | 0.0 | 2.0 | 0.00 | 0.22 | 0.06 | 93 | 1011.0 |
| 20260904133113 | 53 | 0 | 0.0 | 2.0 | 0.00 | 0.22 | 0.06 | 93 | 1010.9 |
| 20260904132555 | 53 | 0 | 0.0 | 2.0 | 0.00 | 0.22 | 0.06 | 93 | 1010.9 |
| 20260904132055 | 53 | 0 | 0.0 | 3.0 | 0.00 | 0.22 | 0.06 | 93 | 1010.8 |
| 20260904131601 | 53 | 0 | 0.0 | 3.0 | 0.00 | 0.22 | 0.06 | 93 | 1010.8 |
| 20260904131059 | 53 | 0 | 0.0 | 2.0 | 0.00 | 0.22 | 0.06 | 93 | 1010.8 |
| 20260904130555 | 53 | 0 | 0.0 | 2.0 | 0.00 | 0.22 | 0.06 | 93 | 1010.7 |
| 20260904130108 | 53 | 0 | 0.0 | 2.0 | 0.00 | 0.22 | 0.06 | 93 | 1010.8 |
| 20260904125555 | 53 | 0 | 0.0 | 2.0 | 0.00 | 0.23 | 0.06 | 93 | 1010.8 |
| 20260904125059 | 53 | 67 | 0.0 | 2.0 | 0.00 | 0.23 | 0.06 | 93 | 1010.9 |
| 20260904124602 | 53 | 0 | 0.0 | 2.0 | 0.00 | 0.23 | 0.06 | 93 | 1010.8 |
| 20260904124055 | 53 | 0 | 0.0 | 1.0 | 0.01 | 0.23 | 0.06 | 93 | 1010.7 |
| 20260904123555 | 53 | 0 | 0.0 | 1.0 | 0.01 | 0.23 | 0.06 | 93 | 1010.7 |
| 20260904123103 | 53 | 0 | 0.0 | 0.0 | 0.02 | 0.23 | 0.06 | 93 | 1010.6 |
| 20260904122556 | 53 | 0 | 0.0 | 0.0 | 0.02 | 0.23 | 0.06 | 93 | 1010.5 |
| 20260904122059 | 53 | 0 | 0.0 | 0.0 | 0.03 | 0.23 | 0.06 | 93 | 1010.6 |
| 20260904121558 | 53 | 0 | 0.0 | 4.0 | 0.03 | 0.23 | 0.06 | 93 | 1010.5 |
| 20260904121056 | 53 | 0 | 0.0 | 4.0 | 0.04 | 0.23 | 0.06 | 93 | 1010.4 |
| 20260904120559 | 53 | 0 | 0.0 | 1.0 | 0.04 | 0.23 | 0.06 | 93 | 1010.3 |
| 20260904120108 | 53 | 0 | 0.0 | 3.0 | 0.04 | 0.23 | 0.06 | 92 | 1010.4 |
| 20260904115555 | 53 | 0 | 0.0 | 3.0 | 0.04 | 0.23 | 0.06 | 93 | 1010.3 |
| 20260904115056 | 53 | 0 | 0.0 | 6.0 | 0.05 | 0.23 | 0.06 | 92 | 1010.3 |
| 20260904114607 | 53 | 0 | 0.0 | 6.0 | 0.05 | 0.23 | 0.06 | 92 | 1010.3 |
| 20260904114057 | 53 | 0 | 0.0 | 6.0 | 0.05 | 0.22 | 0.05 | 92 | 1010.2 |
| 20260904113557 | 53 | 116 | 0.0 | 6.0 | 0.05 | 0.22 | 0.05 | 92 | 1010.2 |
| 20260904113102 | 53 | 83 | 0.0 | 6.0 | 0.04 | 0.21 | 0.04 | 92 | 1010.3 |
| 20260904112555 | 53 | 92 | 1.0 | 4.0 | 0.04 | 0.21 | 0.04 | 91 | 1010.2 |
| 20260904112057 | 53 | 103 | 0.0 | 5.0 | 0.03 | 0.20 | 0.03 | 91 | 1010.1 |
| 20260904111602 | 53 | 0 | 1.0 | 6.0 | 0.03 | 0.20 | 0.03 | 91 | 1010.0 |
| 20260904111055 | 53 | 0 | 0.0 | 6.0 | 0.02 | 0.19 | 0.02 | 91 | 1010.1 |
| 20260904110556 | 53 | 0 | 1.0 | 6.0 | 0.02 | 0.19 | 0.02 | 91 | 1010.0 |
| 20260904105555 | 54 | 74 | 0.0 | 3.0 | 0.02 | 0.19 | 0.02 | 91 | 1010.0 |
| 20260904105054 | 54 | 0 | 1.0 | 3.0 | 0.01 | 0.18 | 0.01 | 90 | 1010.0 |
| 20260904104603 | 54 | 0 | 0.0 | 3.0 | 0.01 | 0.18 | 0.01 | 90 | 1010.0 |
| 20260904104057 | 54 | 0 | 0.0 | 2.0 | 0.00 | 0.17 | 0.00 | 90 | 1010.1 |
| 20260904103554 | 54 | 0 | 0.0 | 1.0 | 0.00 | 0.17 | 0.00 | 90 | 1010.1 |
| 20260904103059 | 54 | 0 | 0.0 | 0.0 | 0.00 | 0.17 | 0.00 | 90 | 1010.1 |
| 20260904102555 | 54 | 0 | 0.0 | 0.0 | 0.00 | 0.17 | 0.00 | 90 | 1010.0 |
| 20260904102055 | 54 | 0 | 0.0 | 0.0 | 0.00 | 0.17 | 0.00 | 89 | 1010.0 |
| 20260904101606 | 54 | 0 | 0.0 | 0.0 | 0.00 | 0.17 | 0.00 | 89 | 1010.0 |
| 20260904101056 | 54 | 0 | 0.0 | 2.0 | 0.00 | 0.17 | 0.00 | 89 | 1009.9 |
| 20260904100555 | 54 | 0 | 0.0 | 2.0 | 0.00 | 0.17 | 0.00 | 89 | 1009.9 |
| 20260904100104 | 54 | 0 | 0.0 | 2.0 | 0.00 | 0.17 | 0.00 | 90 | 1009.9 |
| 20260904095558 | 54 | 0 | 0.0 | 4.0 | 0.00 | 0.17 | 0.00 | 90 | 1009.9 |
| 20260904095055 | 54 | 0 | 0.0 | 4.0 | 0.00 | 0.17 | 0.00 | 90 | 1009.8 |
| 20260904094603 | 54 | 0 | 0.0 | 4.0 | 0.00 | 0.17 | 0.00 | 90 | 1009.8 |
| 20260904094057 | 54 | 0 | 0.0 | 2.0 | 0.00 | 0.17 | 0.00 | 90 | 1009.8 |
| 20260904093555 | 54 | 83 | 0.0 | 4.0 | 0.00 | 0.17 | 0.00 | 90 | 1009.8 |
| 20260904093113 | 54 | 0 | 0.0 | 4.0 | 0.00 | 0.17 | 0.00 | 90 | 1009.7 |
| 20260904092557 | 54 | 79 | 0.0 | 6.0 | 0.00 | 0.17 | 0.00 | 90 | 1009.7 |
| 20260904092057 | 54 | 0 | 1.0 | 6.0 | 0.00 | 0.17 | 0.00 | 90 | 1009.7 |
| 20260904091606 | 54 | 0 | 0.0 | 4.0 | 0.00 | 0.17 | 0.00 | 90 | 1009.8 |
| 20260904091054 | 54 | 0 | 1.0 | 4.0 | 0.00 | 0.17 | 0.00 | 90 | 1009.7 |
| 20260904090555 | 54 | 0 | 0.0 | 4.0 | 0.00 | 0.17 | 0.00 | 90 | 1009.6 |
| 20260904085558 | 55 | 0 | 0.0 | 3.0 | 0.00 | 0.19 | 0.00 | 90 | 1009.7 |
| 20260904085058 | 55 | 0 | 0.0 | 4.0 | 0.00 | 0.19 | 0.00 | 90 | 1009.6 |
| 20260904084603 | 55 | 0 | 0.0 | 4.0 | 0.00 | 0.19 | 0.00 | 90 | 1009.7 |
| 20260904084100 | 55 | 24 | 0.0 | 3.0 | 0.00 | 0.19 | 0.00 | 91 | 1009.6 |
| 20260904083600 | 55 | 0 | 0.0 | 2.0 | 0.00 | 0.19 | 0.00 | 91 | 1009.7 |
| 20260904083105 | 55 | 0 | 0.0 | 2.0 | 0.00 | 0.19 | 0.00 | 90 | 1009.6 |
| 20260904082555 | 55 | 0 | 0.0 | 2.0 | 0.00 | 0.19 | 0.00 | 90 | 1009.6 |
| 20260904082052 | 55 | 0 | 0.0 | 2.0 | 0.00 | 0.19 | 0.00 | 90 | 1009.6 |
| 20260904081603 | 55 | 0 | 0.0 | 2.0 | 0.00 | 0.19 | 0.00 | 90 | 1009.7 |
| 20260904081055 | 55 | 0 | 0.0 | 3.0 | 0.00 | 0.19 | 0.00 | 90 | 1009.6 |
| 20260904080559 | 55 | 0 | 0.0 | 3.0 | 0.00 | 0.19 | 0.00 | 90 | 1009.7 |
| 20260904080119 | 55 | 165 | 0.0 | 6.0 | 0.00 | 0.19 | 0.00 | 90 | 1009.8 |
| 20260904075555 | 55 | 0 | 1.0 | 6.0 | 0.00 | 0.20 | 0.00 | 90 | 1009.8 |
| 20260904075056 | 55 | 76 | 0.0 | 3.0 | 0.00 | 0.20 | 0.00 | 90 | 1009.8 |
| 20260904074600 | 55 | 0 | 1.0 | 3.0 | 0.00 | 0.20 | 0.00 | 91 | 1009.7 |
| 20260904074059 | 55 | 0 | 0.0 | 3.0 | 0.00 | 0.20 | 0.00 | 91 | 1009.8 |
| 20260904073555 | 55 | 102 | 0.0 | 2.0 | 0.00 | 0.20 | 0.00 | 91 | 1009.7 |
| 20260904073111 | 55 | 140 | 0.0 | 2.0 | 0.00 | 0.20 | 0.00 | 91 | 1009.7 |
| 20260904072557 | 55 | 0 | 0.0 | 4.0 | 0.00 | 0.20 | 0.00 | 91 | 1009.8 |
| 20260904072057 | 55 | 0 | 0.0 | 4.0 | 0.00 | 0.20 | 0.00 | 91 | 1009.8 |
| 20260904071557 | 55 | 0 | 1.0 | 4.0 | 0.00 | 0.20 | 0.00 | 91 | 1009.7 |
| 20260904071055 | 55 | 0 | 0.0 | 4.0 | 0.00 | 0.20 | 0.00 | 91 | 1009.7 |
| 20260904070555 | 55 | 91 | 0.0 | 3.0 | 0.00 | 0.20 | 0.00 | 91 | 1009.6 |
| 20260904065554 | 55 | 80 | 0.0 | 4.0 | 0.00 | 0.21 | 0.20 | 91 | 1009.6 |
| 20260904065056 | 55 | 92 | 0.0 | 2.0 | 0.00 | 0.21 | 0.20 | 91 | 1009.7 |
| 20260904064604 | 55 | 0 | 0.0 | 4.0 | 0.00 | 0.21 | 0.20 | 91 | 1009.7 |
| 20260904064055 | 55 | 0 | 0.0 | 4.0 | 0.00 | 0.21 | 0.20 | 91 | 1009.6 |
| 20260904063558 | 55 | 84 | 0.0 | 3.0 | 0.00 | 0.21 | 0.20 | 91 | 1009.6 |
| 20260904063117 | 55 | 0 | 0.0 | 3.0 | 0.00 | 0.21 | 0.20 | 91 | 1009.6 |
| 20260904062555 | 55 | 86 | 0.0 | 2.0 | 0.00 | 0.21 | 0.20 | 91 | 1009.5 |
| 20260904062055 | 56 | 0 | 0.0 | 3.0 | 0.00 | 0.21 | 0.20 | 91 | 1009.6 |
| 20260904061602 | 56 | 0 | 0.0 | 3.0 | 0.00 | 0.21 | 0.20 | 91 | 1009.6 |
| 20260904061057 | 56 | 143 | 0.0 | 2.0 | 0.00 | 0.21 | 0.20 | 91 | 1009.5 |
| 20260904060558 | 56 | 0 | 0.0 | 2.0 | 0.00 | 0.21 | 0.20 | 91 | 1009.5 |
| 20260904060105 | 56 | 0 | 0.0 | 2.0 | 0.00 | 0.21 | 0.20 | 91 | 1009.6 |
| 20260904055555 | 56 | 0 | 0.0 | 3.0 | 0.00 | 0.21 | 0.20 | 91 | 1009.5 |
| 20260904055055 | 56 | 0 | 0.0 | 3.0 | 0.00 | 0.21 | 0.20 | 91 | 1009.6 |
| 20260904054601 | 56 | 65 | 0.0 | 2.0 | 0.00 | 0.21 | 0.20 | 91 | 1009.6 |
| 20260904054056 | 56 | 0 | 0.0 | 0.0 | 0.00 | 0.21 | 0.20 | 91 | 1009.6 |
| 20260904053555 | 56 | 0 | 0.0 | 0.0 | 0.00 | 0.21 | 0.20 | 91 | 1009.7 |
| 20260904053120 | 56 | 0 | 0.0 | 1.0 | 0.00 | 0.21 | 0.20 | 91 | 1009.7 |
| 20260904052555 | 56 | 0 | 0.0 | 1.0 | 0.00 | 0.21 | 0.20 | 90 | 1009.7 |
| 20260904052055 | 56 | 0 | 0.0 | 3.0 | 0.00 | 0.21 | 0.20 | 90 | 1009.7 |
| 20260904051600 | 56 | 0 | 0.0 | 3.0 | 0.00 | 0.21 | 0.20 | 90 | 1009.7 |
| 20260904051056 | 56 | 205 | 0.0 | 0.0 | 0.00 | 0.21 | 0.20 | 90 | 1009.7 |
| 20260904050559 | 56 | 0 | 0.0 | 0.0 | 0.00 | 0.21 | 0.20 | 90 | 1009.9 |
| 20260904050105 | 56 | 0 | 0.0 | 0.0 | 0.00 | 0.21 | 0.20 | 90 | 1009.8 |
| 20260904045556 | 56 | 0 | 0.0 | 0.0 | 0.00 | 0.21 | 0.20 | 90 | 1009.9 |
| 20260904045055 | 56 | 0 | 0.0 | 0.0 | 0.00 | 0.21 | 0.20 | 90 | 1009.8 |
| 20260904044614 | 56 | 0 | 0.0 | 0.0 | 0.00 | 0.21 | 0.20 | 90 | 1009.9 |
| 20260904044055 | 56 | 0 | 0.0 | 0.0 | 0.00 | 0.21 | 0.20 | 90 | 1009.8 |
| 20260904043555 | 56 | 0 | 0.0 | 0.0 | 0.00 | 0.21 | 0.20 | 90 | 1010.0 |
| 20260904043106 | 56 | 0 | 0.0 | 0.0 | 0.00 | 0.21 | 0.20 | 90 | 1009.9 |
| 20260904042555 | 56 | 0 | 0.0 | 0.0 | 0.00 | 0.21 | 0.20 | 90 | 1009.9 |
| 20260904042054 | 56 | 0 | 0.0 | 0.0 | 0.00 | 0.21 | 0.20 | 90 | 1009.9 |
| 20260904041602 | 56 | 0 | 0.0 | 0.0 | 0.00 | 0.21 | 0.20 | 90 | 1009.9 |
| 20260904041055 | 56 | 0 | 0.0 | 1.0 | 0.00 | 0.21 | 0.20 | 89 | 1009.9 |
| 20260904040555 | 56 | 0 | 0.0 | 1.0 | 0.00 | 0.21 | 0.20 | 90 | 1009.9 |
| 20260904040109 | 56 | 0 | 0.0 | 3.0 | 0.00 | 0.21 | 0.20 | 89 | 1009.8 |
| 20260904035554 | 56 | 0 | 0.0 | 3.0 | 0.00 | 0.21 | 0.20 | 89 | 1009.8 |
| 20260904035055 | 56 | 22 | 0.0 | 2.0 | 0.00 | 0.21 | 0.20 | 89 | 1009.8 |
| 20260904034604 | 56 | 0 | 0.0 | 2.0 | 0.00 | 0.21 | 0.20 | 89 | 1009.6 |
| 20260904034055 | 56 | 0 | 0.0 | 2.0 | 0.00 | 0.21 | 0.20 | 89 | 1009.8 |
| 20260904033559 | 56 | 0 | 0.0 | 1.0 | 0.00 | 0.21 | 0.20 | 89 | 1009.6 |
| 20260904033059 | 56 | 0 | 0.0 | 0.0 | 0.00 | 0.21 | 0.20 | 88 | 1009.6 |
| 20260904032556 | 56 | 0 | 0.0 | 0.0 | 0.00 | 0.21 | 0.20 | 88 | 1009.5 |
| 20260904032059 | 57 | 0 | 0.0 | 0.0 | 0.00 | 0.21 | 0.20 | 88 | 1009.5 |
| 20260904031602 | 57 | 0 | 0.0 | 0.0 | 0.00 | 0.21 | 0.20 | 88 | 1009.4 |
| 20260904031055 | 57 | 0 | 0.0 | 0.0 | 0.00 | 0.21 | 0.20 | 87 | 1009.4 |
| 20260904030559 | 57 | 0 | 0.0 | 1.0 | 0.00 | 0.21 | 0.20 | 88 | 1009.4 |
| 20260904030104 | 57 | 0 | 0.0 | 1.0 | 0.00 | 0.21 | 0.20 | 87 | 1009.3 |
| 20260904025553 | 57 | 0 | 0.0 | 1.0 | 0.00 | 0.22 | 0.20 | 87 | 1009.3 |
| 20260904025053 | 57 | 0 | 0.0 | 3.0 | 0.00 | 0.22 | 0.20 | 87 | 1009.2 |
| 20260904024607 | 57 | 0 | 0.0 | 3.0 | 0.00 | 0.22 | 0.20 | 87 | 1009.3 |
| 20260904024053 | 57 | 0 | 0.0 | 3.0 | 0.00 | 0.22 | 0.20 | 87 | 1009.2 |
| 20260904023555 | 57 | 0 | 0.0 | 4.0 | 0.00 | 0.22 | 0.20 | 87 | 1009.2 |
| 20260904023059 | 57 | 0 | 1.0 | 4.0 | 0.00 | 0.22 | 0.20 | 87 | 1009.2 |
| 20260904022553 | 57 | 0 | 0.0 | 4.0 | 0.00 | 0.22 | 0.20 | 87 | 1009.1 |
| 20260904022055 | 57 | 106 | 0.0 | 4.0 | 0.00 | 0.22 | 0.20 | 87 | 1009.2 |
| 20260904021610 | 57 | 88 | 0.0 | 4.0 | 0.00 | 0.22 | 0.20 | 87 | 1009.2 |
| 20260904021057 | 57 | 104 | 1.0 | 7.0 | 0.00 | 0.22 | 0.20 | 87 | 1009.3 |
| 20260904020557 | 57 | 117 | 2.0 | 7.0 | 0.00 | 0.22 | 0.20 | 86 | 1009.2 |
| 20260904015558 | 58 | 104 | 0.0 | 3.0 | 0.00 | 0.22 | 0.20 | 87 | 1009.3 |
| 20260904015058 | 58 | 58 | 0.0 | 3.0 | 0.00 | 0.22 | 0.20 | 86 | 1009.2 |
| 20260904014607 | 58 | 78 | 0.0 | 4.0 | 0.00 | 0.22 | 0.20 | 86 | 1009.3 |
| 20260904014057 | 58 | 0 | 0.0 | 4.0 | 0.00 | 0.22 | 0.20 | 86 | 1009.3 |
| 20260904013557 | 58 | 52 | 1.0 | 5.0 | 0.00 | 0.22 | 0.20 | 85 | 1009.3 |
| 20260904013122 | 58 | 78 | 2.0 | 5.0 | 0.01 | 0.22 | 0.20 | 85 | 1009.3 |
| 20260904012558 | 58 | 112 | 2.0 | 10.0 | 0.01 | 0.22 | 0.20 | 83 | 1009.3 |
| 20260904012058 | 58 | 144 | 3.0 | 10.0 | 0.01 | 0.22 | 0.20 | 83 | 1009.4 |
| 20260904011645 | 58 | 129 | 2.0 | 8.0 | 0.01 | 0.22 | 0.20 | 83 | 1009.3 |
| 20260904011057 | 58 | 134 | 2.0 | 6.0 | 0.01 | 0.22 | 0.20 | 84 | 1009.4 |
| 20260904010557 | 58 | 143 | 0.0 | 6.0 | 0.01 | 0.22 | 0.20 | 84 | 1009.3 |
| 20260904010058 | 58 | 173 | 2.0 | 6.0 | 0.01 | 0.22 | 0.20 | 84 | 1009.3 |
| 20260904005558 | 58 | 125 | 1.0 | 7.0 | 0.01 | 0.22 | 0.20 | 84 | 1009.4 |
| 20260904005058 | 58 | 157 | 2.0 | 7.0 | 0.01 | 0.22 | 0.20 | 84 | 1009.4 |
| 20260904004604 | 58 | 144 | 1.0 | 5.0 | 0.01 | 0.22 | 0.20 | 83 | 1009.4 |
| 20260904004058 | 58 | 0 | 0.0 | 0.0 | 0.01 | 0.22 | 0.20 | 82 | 1009.3 |
| 20260904003558 | 58 | 0 | 0.0 | 6.0 | 0.01 | 0.22 | 0.20 | 81 | 1009.3 |
| 20260904003101 | 58 | 0 | 0.0 | 6.0 | 0.00 | 0.21 | 0.19 | 82 | 1009.2 |
| 20260904002557 | 58 | 0 | 1.0 | 6.0 | 0.00 | 0.21 | 0.19 | 82 | 1009.3 |
| 20260904002058 | 58 | 144 | 0.0 | 6.0 | 0.00 | 0.21 | 0.19 | 82 | 1009.3 |
| 20260904001600 | 58 | 188 | 0.0 | 6.0 | 0.00 | 0.21 | 0.19 | 83 | 1009.3 |
| 20260904001057 | 58 | 0 | 2.0 | 5.0 | 0.00 | 0.21 | 0.19 | 83 | 1009.5 |
| 20260904000557 | 58 | 178 | 1.0 | 5.0 | 0.00 | 0.21 | 0.19 | 85 | 1009.6 |
| 20260904000058 | 58 | 0 | 0.0 | 5.0 | 0.00 | 0.21 | 0.19 | 85 | 1009.6 |
| 20260903235557 | 58 | 194 | 1.0 | 5.0 | 0.00 | 0.23 | 0.19 | 85 | 1009.5 |
| 20260903235057 | 58 | 0 | 1.0 | 5.0 | 0.00 | 0.23 | 0.19 | 86 | 1009.6 |
| 20260903234602 | 58 | 0 | 0.0 | 3.0 | 0.00 | 0.23 | 0.19 | 87 | 1009.5 |
| 20260903234058 | 57 | 0 | 0.0 | 4.0 | 0.00 | 0.23 | 0.19 | 87 | 1009.3 |
| 20260903233558 | 57 | 167 | 0.0 | 4.0 | 0.00 | 0.23 | 0.19 | 86 | 1009.4 |
| 20260903233104 | 57 | 133 | 1.0 | 4.0 | 0.00 | 0.23 | 0.19 | 86 | 1009.6 |
| 20260903232559 | 57 | 0 | 0.0 | 4.0 | 0.00 | 0.23 | 0.19 | 86 | 1009.5 |
| 20260903232101 | 57 | 89 | 2.0 | 6.0 | 0.00 | 0.23 | 0.19 | 85 | 1009.5 |
| 20260903231604 | 57 | 112 | 2.0 | 6.0 | 0.00 | 0.23 | 0.19 | 84 | 1009.6 |
| 20260903231053 | 57 | 0 | 1.0 | 5.0 | 0.00 | 0.23 | 0.19 | 84 | 1009.8 |
| 20260903230557 | 57 | 123 | 1.0 | 5.0 | 0.00 | 0.23 | 0.19 | 83 | 1009.8 |
| 20260903230105 | 57 | 250 | 1.0 | 13.0 | 0.00 | 0.23 | 0.19 | 82 | 1010.0 |
| 20260903225553 | 58 | 138 | 3.0 | 13.0 | 0.00 | 0.23 | 0.19 | 80 | 1010.0 |
| 20260903225053 | 58 | 247 | 3.0 | 10.0 | 0.00 | 0.23 | 0.19 | 79 | 1010.0 |
| 20260903224602 | 59 | 0 | 1.0 | 8.0 | 0.00 | 0.23 | 0.19 | 78 | 1009.9 |
| 20260903224052 | 59 | 239 | 1.0 | 8.0 | 0.00 | 0.23 | 0.19 | 78 | 1009.9 |
| 20260903223557 | 60 | 279 | 2.0 | 13.0 | 0.00 | 0.23 | 0.19 | 75 | 1009.9 |
| 20260903223108 | 60 | 286 | 6.0 | 13.0 | 0.00 | 0.23 | 0.19 | 73 | 1009.8 |
| 20260903222556 | 61 | 269 | 5.0 | 11.0 | 0.00 | 0.23 | 0.19 | 73 | 1009.7 |
| 20260903222055 | 62 | 313 | 2.0 | 6.0 | 0.00 | 0.23 | 0.19 | 73 | 1009.7 |
| 20260903221607 | 62 | 192 | 1.0 | 3.0 | 0.00 | 0.23 | 0.19 | 72 | 1009.7 |
| 20260903221053 | 62 | 0 | 1.0 | 9.0 | 0.00 | 0.23 | 0.19 | 73 | 1009.6 |
| 20260903220553 | 62 | 0 | 1.0 | 9.0 | 0.00 | 0.23 | 0.19 | 73 | 1009.6 |
| 20260903220104 | 62 | 127 | 3.0 | 9.0 | 0.00 | 0.23 | 0.19 | 72 | 1009.5 |
| 20260903215553 | 62 | 160 | 2.0 | 7.0 | 0.00 | 0.23 | 0.19 | 73 | 1009.6 |
| 20260903215055 | 61 | 172 | 2.0 | 7.0 | 0.00 | 0.23 | 0.19 | 74 | 1009.7 |
| 20260903214606 | 61 | 146 | 2.0 | 8.0 | 0.01 | 0.23 | 0.19 | 74 | 1009.7 |
| 20260903214057 | 61 | 179 | 3.0 | 10.0 | 0.01 | 0.23 | 0.19 | 75 | 1009.7 |